Regional Weather Roundup
Issued by NWS

Home | Current Version | Previous Version | Text Only | Print | Product List | Glossary Off
Versions: 1 2 3 4 5 6 7 8 9 10 11 12 13 14 15 16 17 18 19 20 21 22 23 24 25 26 27 28 29 30 31 32 33 34 35 36 37 38 39 40 41 42 43 44 45 46 47 48 49 50

000
ASUS45 KSLC 252310
RWRUT

UTAH REGIONAL WEATHER ROUNDUP
NATIONAL WEATHER SERVICE SALT LAKE CITY UT
400 PM MST SUN JAN 25 2015

UTZ001>011-023>025-260000-

NORTHERN UTAH

CITY           SKY/WX    TMP DP  RH WIND       PRES   REMARKS
BRIGHAM CITY   SUNNY     47  31  52 SW6       30.43S
HILL AFB       SUNNY     48  23  37 NW7       30.41F
LOGAN          SUNNY     44  33  65 CALM      30.42F
OGDEN          SUNNY     49  31  49 NW5       30.41F
PROVO AIRPORT  NOT AVBL
SALT LAKE CITY MOSUNNY   50  35  56 N9        30.41F
VERNAL         MOSUNNY   42  22  44 CALM      30.34F
WENDOVER       SUNNY     43  30  61 SE5       30.42S
HEBER CITY     SUNNY     45  32  61 CALM      30.40S
WEST JORDAN    SUNNY     48  36  61 NW10      30.41S

$$

UTZ012>022-026-027-260000-

SOUTHERN/CENTRAL UTAH

CITY           SKY/WX    TMP DP  RH WIND       PRES   REMARKS
BLANDING       SUNNY     58  24  27 NE9       30.34F
BRYCE CANYON   SUNNY     52  27  38 NE14      30.35F
CEDAR CITY     SUNNY     54  30  40 NW7       30.31F
DELTA          SUNNY     51  33  48 CALM      30.39S
MILFORD        SUNNY     53  33  46 N16G22    30.35F
MOAB/CYNLANDS  SUNNY     47  19  33 NW3       30.32S
PRICE          MOSUNNY   50  22  33 SE6       30.32F
ST GEORGE      CLEAR     64  32  29 S3        30.23F
KANAB          SUNNY     61  23  23 E13       30.30R

$$

REGIONAL REPORTS     COLORADO/ARIZONA

CITY           SKY/WX    TMP DP  RH WIND       PRES   REMARKS
CRAIG, CO      PTSUNNY   40  28  62 NE8       30.35R WCI  34
GRAND JUNCTION PTSUNNY   47  23  38 N5        30.32S
RIFLE          SUNNY     49  23  36 W7        30.32S
MONTROSE       MOSUNNY   46  19  34 NW8       30.34S
CORTEZ         SUNNY     51  24  34 SW12      30.25S
PAGE, AZ       NOT AVBL
GRAND CANYON   SUNNY     52  21  29 E9        30.32S
KINGMAN        SUNNY     67  25  20 N18       30.15F
FLAGSTAFF      SUNNY     53  20  27 NE13      30.30S

$$

REGIONAL REPORTS    NEVADA/IDAHO/WYOMING

CITY           SKY/WX    TMP DP  RH WIND       PRES   REMARKS
LAS VEGAS, NV  MOSUNNY   73  31  21 W7        30.12F
ELY            SUNNY     57  31  37 N16       30.37R
ELKO           SUNNY     56  34  43 NE6       30.35F
POCATELLO, ID  MOSUNNY   37  33  85 N10       30.43R WCI  30
BURLEY         SUNNY     48  34  58 NE7       30.38R
EVANSTON, WY   SUNNY     46  31  55 SW6       30.41R
ROCK SPRINGS   SUNNY     46  29  51 W18       30.31S
KEMMERER       SUNNY     39  32  75 NW9G16    30.42S WCI  33

$$



USA.gov is the U.S. government's official web portal to all federal, state and local government web resources and services.